Weather History for Tunica, MS

Change the Weather History Date:

Saturday, August 31, 2013

  Actual Average (KMEM) Record (KMEM)
Temperature  
Mean Temperature 82 °F 80 °F  
Max Temperature 95 °F 90 °F 103 °F (1951)
Min Temperature 69 °F 71 °F 48 °F (1946)
Degree Days  
Heating Degree Days 0 0  
Month to date heating degree days 0  
Since 1 June heating degree days 0  
Since 1 July heating degree days 0  
Cooling Degree Days 17 15  
Month to date cooling degree days 527  
Year to date cooling degree days 1835  
Since 1 June cooling degree days 1514  
Growing Degree Days 32 (Base 50)    
Moisture  
Dew Point 69 °F    
Average Humidity 67    
Maximum Humidity 94    
Minimum Humidity 36    
Precipitation  
Precipitation 0.00 in 0.08 in 2.33 in (1889)
Month to date precipitation 2.88  
Year to date precipitation 35.38  
Snow  
Snow 0.00 in 0.00 in - ()
Month to date snowfall 0.0  
Since 1 June snowfall 0.0  
Since 1 July snowfall 0.0  
Snow Depth -    
Sea Level Pressure  
Sea Level Pressure 29.90 in    
Wind  
Wind Speed 4 mph (SSW)    
Max Wind Speed 12 mph    
Max Gust Speed -    
Visibility 10 miles    
Events      
T = Trace of Precipitation, MM = Missing Value Source: NWS Daily Summary

Daily Weather History Graph

Daily Weather History Graph

Search for Another Location

Airport:

Trip Planner

Search our weather history database for the weather conditions in past years. The results will help you decide how hot, cold, wet, or windy it might be!

Date:

Astronomy

Aug. 31, 2013 Rise Set
Actual Time 6:33 AM CDT 7:28 PM CDT
Civil Twilight 6:08 AM CDT 7:54 PM CDT
Nautical Twilight 5:37 AM CDT 8:24 PM CDT
Astronomical Twilight 5:06 AM CDT 8:56 PM CDT
Moon 2:09 AM CDT (8/31) 4:20 PM CDT (8/31)
Length of Visible Light 13h 46m
Length of Day
12h 54m
Waning Crescent, 21% of the Moon is Illuminated
Aug 31
Waning Crescent
Sep 5
New
Sep 12
First Quarter
Sep 19
Full
Sep 26
Last Quarter

Hourly Weather History & Observations

Time (CDT) Temp. Heat Index Dew Point Humidity Pressure Visibility Wind Dir Wind Speed Gust Speed Precip Events Conditions
12:15 AM 75.2 °F - 69.8 °F 83% 29.91 in 10.0 mi South 3.5 mph - N/A   Clear
12:35 AM 77.0 °F - 69.8 °F 78% 29.91 in 10.0 mi Calm Calm - N/A   Clear
12:55 AM 75.2 °F - 69.8 °F 83% 29.91 in 10.0 mi SSW 3.5 mph - N/A   Clear
1:15 AM 73.4 °F - 69.8 °F 88% 29.91 in 10.0 mi Calm Calm - N/A   Clear
1:35 AM 73.4 °F - 69.8 °F 88% 29.91 in 10.0 mi Calm Calm - N/A   Clear
1:55 AM 73.4 °F - 69.8 °F 88% 29.91 in 10.0 mi SE 3.5 mph - N/A   Clear
2:15 AM 73.4 °F - 69.8 °F 88% 29.91 in 10.0 mi South 5.8 mph - N/A   Clear
2:35 AM 71.6 °F - 69.8 °F 94% 29.91 in 10.0 mi South 5.8 mph - N/A   Clear
2:55 AM 71.6 °F - 68.0 °F 88% 29.91 in 7.0 mi SE 5.8 mph - N/A   Clear
3:15 AM 71.6 °F - 69.8 °F 94% 29.91 in 10.0 mi SSE 5.8 mph - N/A   Clear
3:35 AM 73.4 °F - 69.8 °F 88% 29.92 in 10.0 mi SSE 5.8 mph - N/A   Clear
3:55 AM 71.6 °F - 68.0 °F 88% 29.92 in 10.0 mi SSE 4.6 mph - N/A   Clear
4:15 AM 71.6 °F - 68.0 °F 88% 29.92 in 10.0 mi SSE 5.8 mph - N/A   Clear
4:35 AM 71.6 °F - 68.0 °F 88% 29.92 in 10.0 mi South 3.5 mph - N/A   Clear
4:55 AM 71.6 °F - 68.0 °F 88% 29.92 in 7.0 mi Calm Calm - N/A   Clear
5:15 AM 71.6 °F - 68.0 °F 88% 29.91 in 10.0 mi SSE 5.8 mph - N/A   Clear
5:35 AM 69.8 °F - 68.0 °F 94% 29.92 in 7.0 mi South 5.8 mph - N/A   Clear
5:55 AM 71.6 °F - 68.0 °F 88% 29.92 in 7.0 mi South 3.5 mph - N/A   Clear
6:15 AM 71.6 °F - 68.0 °F 88% 29.92 in 7.0 mi Calm Calm - N/A   Clear
6:35 AM 71.6 °F - 68.0 °F 88% 29.93 in 7.0 mi Calm Calm - N/A   Clear
6:55 AM 71.6 °F - 68.0 °F 88% 29.93 in 7.0 mi Calm Calm - N/A   Clear
7:15 AM 73.4 °F - 69.8 °F 88% 29.94 in 7.0 mi Calm Calm - N/A   Clear
7:35 AM 73.4 °F - 69.8 °F 88% 29.95 in 5.0 mi Calm Calm - N/A   Clear
7:55 AM 75.2 °F - 69.8 °F 83% 29.95 in 7.0 mi Calm Calm - N/A   Clear
8:15 AM 77.0 °F - 71.6 °F 83% 29.95 in 7.0 mi Calm Calm - N/A   Clear
8:35 AM 78.8 °F - 71.6 °F 78% 29.95 in 10.0 mi South 3.5 mph - N/A   Clear
8:55 AM 80.6 °F 84.6 °F 71.6 °F 74% 29.95 in 10.0 mi SSW 5.8 mph - N/A   Clear
9:15 AM 82.4 °F 86.3 °F 69.8 °F 66% 29.95 in 10.0 mi SW 8.1 mph - N/A   Clear
9:35 AM 84.2 °F 89.6 °F 71.6 °F 66% 29.95 in 10.0 mi SW 6.9 mph - N/A   Clear
9:55 AM 86.0 °F 90.4 °F 69.8 °F 58% 29.95 in 10.0 mi SSW 8.1 mph - N/A   Clear
10:15 AM 87.8 °F 92.6 °F 69.8 °F 55% 29.95 in 10.0 mi SW 10.4 mph - N/A   Clear
10:35 AM 87.8 °F 92.6 °F 69.8 °F 55% 29.95 in 10.0 mi SW 9.2 mph - N/A   Clear
10:55 AM 89.6 °F 94.7 °F 69.8 °F 52% 29.95 in 10.0 mi WSW 10.4 mph - N/A   Clear
11:15 AM 89.6 °F 93.4 °F 68.0 °F 49% 29.94 in 10.0 mi WSW 11.5 mph - N/A   Clear
11:35 AM 91.4 °F 95.4 °F 68.0 °F 46% 29.94 in 10.0 mi SW 9.2 mph - N/A   Clear
11:55 AM 91.4 °F 96.8 °F 69.8 °F 49% 29.93 in 10.0 mi SW 10.4 mph - N/A   Clear
12:15 PM 91.4 °F 96.8 °F 69.8 °F 49% 29.92 in 10.0 mi SSW 8.1 mph - N/A   Clear
12:35 PM 93.2 °F 98.8 °F 69.8 °F 46% 29.92 in 10.0 mi SW 10.4 mph - N/A   Clear
12:55 PM 93.2 °F 98.8 °F 69.8 °F 46% 29.92 in 10.0 mi SW 9.2 mph - N/A   Clear
1:15 PM 95.0 °F 99.5 °F 68.0 °F 41% 29.91 in 10.0 mi SSW 8.1 mph - N/A   Clear
1:35 PM 95.0 °F 99.5 °F 68.0 °F 41% 29.92 in 10.0 mi WSW 9.2 mph - N/A   Clear
1:55 PM 95.0 °F 99.5 °F 68.0 °F 41% 29.91 in 10.0 mi SSW 5.8 mph - N/A   Clear
2:15 PM 95.0 °F 99.5 °F 68.0 °F 41% 29.90 in 10.0 mi SSW 8.1 mph - N/A   Clear
2:35 PM 95.0 °F 98.5 °F 66.2 °F 39% 29.89 in 10.0 mi SSW 4.6 mph - N/A   Clear
2:55 PM 95.0 °F 98.5 °F 66.2 °F 39% 29.88 in 10.0 mi West 5.8 mph - N/A   Clear
3:15 PM 95.0 °F 99.5 °F 68.0 °F 41% 29.87 in 10.0 mi SW 5.8 mph - N/A   Clear
3:35 PM 95.0 °F 97.0 °F 64.4 °F 36% 29.87 in 10.0 mi WSW 6.9 mph - N/A   Clear
3:55 PM 95.0 °F 99.5 °F 68.0 °F 41% 29.86 in 10.0 mi SSW 8.1 mph - N/A   Scattered Clouds
4:15 PM 95.0 °F 97.0 °F 64.4 °F 36% 29.85 in 10.0 mi WSW 4.6 mph - N/A   Scattered Clouds
4:35 PM 95.0 °F 98.5 °F 66.2 °F 39% 29.85 in 10.0 mi South 5.8 mph - N/A   Scattered Clouds
4:55 PM 95.0 °F 97.0 °F 64.4 °F 36% 29.85 in 10.0 mi SW 5.8 mph - N/A   Scattered Clouds
5:15 PM 95.0 °F 99.5 °F 68.0 °F 41% 29.85 in 10.0 mi SW 6.9 mph - N/A   Clear
5:35 PM 93.2 °F 97.7 °F 68.0 °F 44% 29.85 in 10.0 mi SSW 5.8 mph - N/A   Clear
5:55 PM 93.2 °F 98.8 °F 69.8 °F 46% 29.85 in 10.0 mi SSW 5.8 mph - N/A   Clear
6:15 PM 91.4 °F 96.8 °F 69.8 °F 49% 29.84 in 10.0 mi SSW 6.9 mph - N/A   Clear
6:35 PM 89.6 °F 94.7 °F 69.8 °F 52% 29.84 in 10.0 mi South 6.9 mph - N/A   Clear
6:55 PM 87.8 °F 93.8 °F 71.6 °F 58% 29.84 in 10.0 mi SSW 5.8 mph - N/A   Clear
7:15 PM 86.0 °F 91.8 °F 71.6 °F 62% 29.85 in 10.0 mi SSW 4.6 mph - N/A   Scattered Clouds
7:35 PM 86.0 °F 90.4 °F 69.8 °F 58% 29.85 in 10.0 mi SSW 6.9 mph - N/A   Scattered Clouds
7:55 PM 84.2 °F 88.4 °F 69.8 °F 62% 29.85 in 10.0 mi South 4.6 mph - N/A   Clear
8:15 PM 82.4 °F 86.3 °F 69.8 °F 66% 29.86 in 10.0 mi South 4.6 mph - N/A   Clear
8:35 PM 78.8 °F - 71.6 °F 78% 29.86 in 10.0 mi South 3.5 mph - N/A   Clear
8:55 PM 78.8 °F - 69.8 °F 74% 29.86 in 10.0 mi South 5.8 mph - N/A   Clear
9:15 PM 80.6 °F 83.9 °F 69.8 °F 70% 29.86 in 10.0 mi SSW 3.5 mph - N/A   Clear
9:35 PM 78.8 °F - 69.8 °F 74% 29.87 in 10.0 mi Calm Calm - N/A   Clear
9:55 PM 78.8 °F - 69.8 °F 74% 29.86 in 10.0 mi South 3.5 mph - N/A   Clear
10:15 PM 78.8 °F - 69.8 °F 74% 29.86 in 10.0 mi Calm Calm - N/A   Clear
10:35 PM 77.0 °F - 71.6 °F 83% 29.86 in 10.0 mi SSE 3.5 mph - N/A   Clear
10:55 PM 77.0 °F - 69.8 °F 78% 29.86 in 10.0 mi SSE 5.8 mph - N/A   Clear
11:15 PM 77.0 °F - 69.8 °F 78% 29.85 in 10.0 mi SSE 6.9 mph - N/A   Clear
11:35 PM 77.0 °F - 69.8 °F 78% 29.85 in 10.0 mi South 6.9 mph - N/A   Clear
11:55 PM 77.0 °F - 69.8 °F 78% 29.85 in 10.0 mi South 4.6 mph - N/A   Clear